Location: *
(43.0833°N, 13.0500°E)
Time: 21:59:01
(UTC+00:00)

NOSS 2-3 (C) - Pass Details

Date: 15 November 2019
Orbit: 594 x 1618 km, 63.4° (Epoch: 01 December)

Event Time Altitude Azimuth Distance (km) Brightness Sun altitude
Rises 16:59:04 0° 194° (SSW) 2,816 7.3 -13.7°
Reaches altitude 10° 17:01:19 10° 186° (S) 1,938 6.3 -14.1°
Maximum altitude 17:05:18 40° 117° (ESE) 954 4.1 -14.8°
Enters shadow 17:07:31 24° 65° (ENE) 1,383 4.8 -15.2°
